Tracking 28790 objects as of 19-Apr-2024
HD Live streaming from Space Station
objects crossing your sky now

STARLINK-3680

Track STARLINK-3680 now!
10-day predictions
STARLINK-3680 is classified as:


NORAD ID: 51969
Int'l Code: 2022-025P
Perigee: 553.2 km
Apogee: 555.6 km
Inclination: 53.1 °
Period: 95.6 minutes
Semi major axis: 6925 km
RCS: Unknown
Launch date: March 9, 2022
Source: United States (US)
Launch site: AIR FORCE EASTERN TEST RANGE (AFETR)
Your satellite tracking list
Your tracking list is empty




NASA's NSSDC Master Catalog

Two Line Element Set (TLE):
1 51969U 22025P   24109.37182258  .00006778  00000-0  47355-3 0  9998
2 51969  53.0525 245.5970 0001747  80.9139 279.2048 15.06394218116923
Source of the keplerian elements: AFSPC